This is the latest recevied weather packets stored in our database for station/object SV9TNF-51. If no packets are shown the sender has not sent any weather packets the latest 10 day(s).
| Time | Temp. | Humidity | Pressure | Rain* | Wind** | Luminosity | Snow |
|---|---|---|---|---|---|---|---|
| 1788248591 | 32.78° C | 43% | 1011.9 hPa | 0 mm | 1.34 m/s, 138° | - | - |
| 1788248290 | 31.67° C | 43% | 1011.9 hPa | 0 mm | 1.34 m/s, 131° | - | - |
| 1788247990 | 31.67° C | 43% | 1011.9 hPa | 0 mm | 1.34 m/s, 124° | - | - |
| 1788247691 | 31.67° C | 44% | 1011.9 hPa | 0 mm | 1.79 m/s, 136° | - | - |
| 1788247391 | 31.11° C | 42% | 1011.5 hPa | 0 mm | 3.58 m/s, 55° | - | - |
| 1788247090 | 31.67° C | 40% | 1011.5 hPa | 0 mm | 3.58 m/s, 300° | - | - |
| 1788246790 | 31.67° C | 43% | 1011.5 hPa | 0 mm | 0.89 m/s, 352° | - | - |
| 1788246490 | 31.11° C | 41% | 1011.5 hPa | 0 mm | 4.47 m/s, 130° | - | - |
| 1788246190 | 31.11° C | 40% | 1011.5 hPa | 0 mm | 2.24 m/s, 167° | - | - |
| 1788245890 | 31.11° C | 40% | 1011.5 hPa | 0 mm | 0.89 m/s, 124° | - | - |
| 1788245590 | 30° C | 43% | 1011.5 hPa | 0 mm | 4.47 m/s, 124° | - | - |
| 1788245289 | 30° C | 44% | 1011.5 hPa | 0 mm | 4.92 m/s, 181° | - | - |
| 1788244989 | 30° C | 44% | 1011.5 hPa | 0 mm | 5.81 m/s, 187° | - | - |
| 1788244689 | 29.44° C | 45% | 1011.5 hPa | 0 mm | 0 m/s | - | - |
| 1788244389 | 29.44° C | 46% | 1011.5 hPa | 0 mm | 3.58 m/s, 302° | - | - |
| 1788244089 | 29.44° C | 47% | 1011.5 hPa | 0 mm | 3.13 m/s, 319° | - | - |
| 1788243789 | 28.89° C | 48% | 1011.5 hPa | 0 mm | 3.13 m/s, 118° | - | - |
| 1788243489 | 28.89° C | 52% | 1011.5 hPa | 0 mm | 3.13 m/s, 114° | - | - |
| 1788243189 | 28.89° C | 53% | 1011.5 hPa | 0 mm | 4.92 m/s, 324° | - | - |
| 1788242889 | 28.33° C | 49% | 1011.5 hPa | 0 mm | 2.68 m/s, 125° | - | - |
| 1788242589 | 28.33° C | 54% | 1011.5 hPa | 0 mm | 1.34 m/s, 133° | - | - |
| 1788242289 | 27.78° C | 54% | 1011.5 hPa | 0 mm | 3.58 m/s, 136° | - | - |
| 1788241988 | 27.22° C | 60% | 1011.5 hPa | 0 mm | 2.68 m/s, 346° | - | - |
| 1788241689 | 26.67° C | 59% | 1011.5 hPa | 0 mm | 1.79 m/s, 134° | - | - |
| 1788241388 | 26.67° C | 61% | 1011.5 hPa | 0 mm | 4.02 m/s, 151° | - | - |
* Rain latest hour (hover to see other rain measurements)
** Current wind speed in m/s (hover to see current wind gust speed)